Torna al catalogo

STARLINK-31183

AttivoComunicazioniVLEO
NORAD 58747·PAYLOAD·🇺🇸 United States

Lanciato Jan 7, 2024 da Cape Canaveral Space Force Station

Loading…

Prossimi Passaggi (prossime 24 ore)

TLE

AggiornatoSource: CelesTrak SupGP

Epoca: Sep 15, 2026, 01:49 UTC

1 58747C 24005V   26258.07618056 -.00020089  00000+0 -72715-3 0  2581
2 58747  43.0013 230.3840 0001413 262.1010 176.8144 15.27609324    16

Traccia STARLINK-31183 in tempo reale con AllMySat

Download on the App Store